Location: Caltech
(34.1382°N, 118.1253°W)
Time: 10:38:13
(UTC-07:00)

Cosmos 1125 Rocket - Visible Passes

Search period start: 23 April 2018 00:00
Search period end: 03 May 2018 00:00
Orbit: 757 x 781 km, 74.0° (Epoch: 22 April)

Date Brightness Start Highest point End Pass type
(mag) Time Alt. Az. Time Alt. Az. Time Alt. Az.
23 Apr 6.2 03:45:46 10° NNE 03:49:28 19° ENE 03:53:09 10° ESE visible
23 Apr 3.8 05:26:43 10° NNW 05:31:45 45° WSW 05:36:44 10° S visible
24 Apr 6.7 03:11:08 10° NE 03:12:21 11° ENE 03:13:34 10° ENE visible
24 Apr 3.4 04:49:45 10° NNW 04:55:04 82° WSW 05:00:20 10° SSE visible
25 Apr 4.2 04:13:05 10° N 04:18:18 56° ENE 04:23:28 10° SSE visible
26 Apr 5.2 03:36:42 10° N 03:41:25 32° ENE 03:46:06 10° SE visible
26 Apr 4.5 05:19:02 10° NW 05:23:17 25° W 05:27:31 10° SSW visible
27 Apr 6.0 03:00:45 10° NNE 03:04:25 19° ENE 03:08:05 10° ESE visible
27 Apr 3.8 04:41:41 10° NNW 04:46:43 45° WSW 04:51:41 10° S visible
28 Apr 6.5 02:26:11 10° NE 02:27:19 11° ENE 02:28:26 10° ENE visible
28 Apr 3.4 04:04:43 10° NNW 04:10:02 82° WSW 04:14:10 17° SSE visible
29 Apr 4.1 03:28:03 10° N 03:33:16 56° ENE 03:35:38 31° SE visible
29 Apr 5.1 05:12:09 10° WNW 05:14:45 14° W 05:15:46 13° WSW visible
30 Apr 5.1 02:51:40 10° N 02:56:23 32° ENE 02:57:56 27° E visible
30 Apr 4.5 04:33:59 10° NW 04:38:07 25° W 04:38:07 25° W visible
01 May 5.8 02:15:43 10° NNE 02:19:23 19° ENE 02:20:37 17° E visible
01 May 4.0 03:56:38 10° NNW 04:00:50 42° WNW 04:00:50 42° WNW visible
02 May 6.3 01:41:13 10° NE 01:42:16 11° ENE 01:43:17 10° ENE visible
02 May 3.9 03:19:41 10° NNW 03:23:47 54° NNW 03:23:47 54° NNW visible
